Regional Weather Roundup
Issued by NWS

Home | Current Version | Previous Version | Text Only | Print | Product List | Glossary Off
Versions: 1 2 3 4 5 6 7 8 9 10 11 12 13 14 15 16 17 18 19 20 21 22 23 24 25 26 27 28 29 30 31 32 33 34 35 36 37 38 39 40 41 42 43 44 45 46 47 48 49 50

000
ASUS43 KFSD 281410
RWRSD

WEATHER ROUNDUP FOR SOUTH DAKOTA
NATIONAL WEATHER SERVICE SIOUX FALLS SD
800 AM CST SUN DEC 28 2014

NOTE: "FAIR" INDICATES FEW OR NO CLOUDS BELOW 12,000 FEET WITH NO
SIGNIFICANT WEATHER AND/OR OBSTRUCTIONS TO VISIBILITY.


SDZ001>005-009-010-012>017-281500-
NORTHWEST AND NORTH CENTRAL SOUTH DAKOTA

CITY           SKY/WX    TMP DP  RH WIND       PRES   REMARKS
BUFFALO          N/A     18  10  71 E3        29.85R
FAITH            N/A     13   8  81 S5        29.97R WCI   5
MOBRIDGE       CLOUDY    14  10  84 E10       30.03R WCI   1
$$

SDZ012>016-024>037-041>051-057-063-072>074-281500-
SOUTHWEST AND SOUTH CENTRAL SOUTH DAKOTA

CITY           SKY/WX    TMP DP  RH WIND       PRES   REMARKS
RAPID CTY ARPT MOCLDY    16   6  65 W3        29.93R
PIERRE         PTCLDY     5   3  91 CALM      30.04S
CUSTER         MOCLDY    11   3  70 CALM      29.82S
ELLSWORTH AFB  PTCLDY    13   5  69 W8        29.92S WCI   2
PHILIP         PTCLDY     4   0  83 CALM      30.01R
PINE RIDGE     PTCLDY     3  -2  79 CALM      29.95S
SPEARFISH      CLOUDY    16   7  67 S5        29.90R WCI   9
WINNER         FAIR       8   2  76 SW7       30.04R WCI  -3
$$

SDZ004>011-016>023-039-040-281500-
NORTHEAST SOUTH DAKOTA

CITY           SKY/WX    TMP DP  RH WIND       PRES   REMARKS
ABERDEEN       CLOUDY    17  13  84 NE12      30.13R WCI   4
WATERTOWN      CLOUDY     6   3  87 CALM      30.07R
SISSETON         N/A     14  11  87 N16       30.15R WCI  -2
$$

SDZ017-020-022-023-036>040-048>070-281500-
SOUTHEAST SOUTH DAKOTA

CITY           SKY/WX    TMP DP  RH WIND       PRES   REMARKS
SIOUX FALLS    PTCLDY    -3  -7  82 CALM      30.09S
HURON          PTCLDY    -2  -6  83 CALM      30.11R FOG
CHAMBERLAIN    PTCLDY    -1  -4  87 CALM      30.07S
MITCHELL       CLEAR      5   2  87 W3        30.11R
YANKTON          N/A      7   5  92 CALM      30.12R VSB 3/4
$$

ABBREVIATIONS USED IN REMARKS
   TC - TEMPERATURE IN CELSIUS
  WCI - WIND CHILL INDEX
   HX - HEAT INDEX
  VSB - VISIBILITY



USA.gov is the U.S. government's official web portal to all federal, state and local government web resources and services.